Flag for Bahrain Weather past 2 weeks in Riffa, Bahrain

Now
90 °F

Sunny.


Feels Like: 87 °F
Forecast: 85 / 100 °F
Wind: 5 mph from South

Location: Bahrain International Airport

Current Time: May 23, 2015 at 6:11:40 AM

Latest Report: May 23, 2015 at 5:00 AM


Visibility: 10 mi

Pressure: 29.65 "Hg

Humidity: 27%

Dew point: 52 °F

Location of RiffaLocation

Historic Weather in Riffa — Graph

°F

Riffa temperature yesterday

Maximum temperature yesterday: 106 °F (at 10:00 AM)
Minimum temperature yesterday: 88 °F (at 11:00 PM)
Average temperature yesterday: 95 °F

Past Weeks' High & Low Weather Summary

 TemperatureHumidityPressure
High106 °F (May 22, 10:00 AM)74% (May 10, 10:00 PM)29.86 "Hg (May 10, 10:00 PM)
Low81 °F (May 19, 2:00 AM)10% (May 20, 1:00 PM)29.59 "Hg (May 9, 5:00 PM)
Average91 °F39%29.73 "Hg
* Reported May 8 4:00 AM — May 23 4:00 AM, Riffa, Weather by CustomWeather, © 2015

Note: Actual official high and low records may vary slightly from our data, if they occured in-between our weather recording intervals... More about our weather records

Advertising

Riffa weather history for previous 24 hours

 ConditionsComfort  
Time TempWeatherWind HumidityBarometerVisibility
4:00 AM
Sat, May 23
88 °FClear.1 mph49%29.65 "Hg10 mi
3:00 AM90 °FClear.5 mph46%29.65 "Hg10 mi
2:00 AM88 °FClear.2 mph62%29.65 "Hg10 mi
1:00 AM88 °FClear.3 mph59%29.65 "Hg10 mi
12:00 AM88 °FClear.6 mph55%29.65 "Hg10 mi
11:00 PM
Fri, May 22
88 °FClear.6 mph66%29.65 "Hg10 mi
10:00 PM90 °FClear.9 mph59%29.65 "Hg10 mi
9:00 PM90 °FClear.8 mph63%29.65 "Hg10 mi
8:00 PM91 °FClear.12 mph46%29.65 "Hg10 mi
7:00 PM90 °FClear.10 mph63%29.62 "Hg10 mi
6:00 PM95 °FSunny.8 mph41%29.62 "Hg10 mi
5:00 PM97 °FSunny.9 mph34%29.62 "Hg10 mi
4:00 PM99 °FSunny.10 mph35%29.62 "Hg10 mi
3:00 PM102 °FSunny.10 mph14%29.65 "Hg10 mi
2:00 PM102 °FSunny.9 mph20%29.68 "Hg10 mi
1:00 PM102 °FSunny.8 mph21%29.68 "Hg10 mi
12:00 PM104 °FPassing clouds.5 mph20%29.71 "HgN/A
11:00 AM100 °FSunny.8 mph27%29.71 "Hg10 mi
10:00 AM106 °FPassing clouds.3 mph10%29.71 "HgN/A
9:00 AM104 °FPassing clouds.5 mph11%29.71 "HgN/A
8:00 AM97 °FPassing clouds.5 mph17%29.71 "HgN/A
7:00 AM93 °FPassing clouds.6 mph21%29.68 "HgN/A
6:00 AM91 °FPassing clouds.5 mph21%29.68 "HgN/A
Weather by CustomWeather, © 2015

See weather overviewHow to use our weather pages